IRM250 OIIE-OOMS

Flight info

Callsign IRM250
Flight time N/A
Altitude 39000
Route OBRIX M715 PURKI W32 SRJ L430 ASLOM R462 VUSET
Aircraft B772/H-SDE2E3FGHIJ5LORVWXY/LB1D1

Departure

Time N/A
Airport Imam Khomeini International Airport (OIIE)

Arrival

Time 2026-05-09 02:43
Airport Muscat International Airport (OOMS)
Time Latitude Longitude Altitude Speed Heading
2026-05-09 01:38 28.52975 56.33815 41220 ft 480 kts 158°
2026-05-09 01:39 28.47083 56.37429 41198 ft 481 kts 158°
2026-05-09 01:39 28.41206 56.41031 41183 ft 480 kts 158°
2026-05-09 01:40 28.35336 56.44624 41159 ft 482 kts 158°
2026-05-09 01:40 28.29431 56.48235 41146 ft 481 kts 158°
2026-05-09 01:41 28.23556 56.51823 41127 ft 482 kts 158°
2026-05-09 01:41 28.17665 56.55415 41146 ft 480 kts 158°
2026-05-09 01:42 28.11738 56.58968 41127 ft 481 kts 158°
2026-05-09 01:42 28.05830 56.62502 41139 ft 482 kts 158°
2026-05-09 01:43 27.99883 56.66058 41106 ft 480 kts 158°
2026-05-09 01:43 27.93987 56.69578 41080 ft 482 kts 158°
2026-05-09 01:44 27.88070 56.73108 41076 ft 481 kts 158°
2026-05-09 01:44 27.82153 56.76633 41066 ft 482 kts 158°
2026-05-09 01:45 27.76206 56.80172 41051 ft 482 kts 158°
2026-05-09 01:45 27.70286 56.83691 41007 ft 481 kts 158°
2026-05-09 01:46 27.64360 56.87209 40973 ft 482 kts 158°
2026-05-09 01:46 27.58424 56.90728 40946 ft 481 kts 158°
2026-05-09 01:47 27.52504 56.94234 40931 ft 482 kts 158°
2026-05-09 01:47 27.46572 56.97742 40922 ft 482 kts 158°
2026-05-09 01:48 27.40651 57.01240 40888 ft 482 kts 158°
2026-05-09 01:48 27.34726 57.04733 40839 ft 481 kts 157°
2026-05-09 01:49 27.28768 57.08240 40805 ft 482 kts 157°
2026-05-09 01:49 27.22927 57.11676 40804 ft 482 kts 158°
2026-05-09 01:50 27.16957 57.15181 40802 ft 483 kts 157°
2026-05-09 01:50 27.11003 57.18675 40784 ft 483 kts 157°
2026-05-09 01:51 27.05091 57.22139 40782 ft 483 kts 157°
2026-05-09 01:51 26.99122 57.25632 40779 ft 483 kts 157°
2026-05-09 01:52 26.93182 57.29105 40819 ft 483 kts 157°
2026-05-09 01:52 26.87206 57.32594 40834 ft 483 kts 157°
2026-05-09 01:53 26.81261 57.36062 40856 ft 482 kts 156°
2026-05-09 01:53 26.75791 57.40488 40894 ft 495 kts 139°
2026-05-09 01:54 26.71171 57.46268 40898 ft 498 kts 135°
2026-05-09 01:54 26.66639 57.52117 40926 ft 499 kts 135°
2026-05-09 01:55 26.62122 57.57931 41004 ft 498 kts 135°
2026-05-09 01:55 26.57564 57.63786 41060 ft 498 kts 135°
2026-05-09 01:56 26.52998 57.69627 41100 ft 498 kts 136°
2026-05-09 01:56 26.48445 57.75434 41127 ft 498 kts 136°
2026-05-09 01:57 26.43924 57.81193 41065 ft 497 kts 136°
2026-05-09 01:57 26.39499 57.86821 41011 ft 498 kts 136°
2026-05-09 01:58 26.34950 57.92601 40975 ft 498 kts 135°
2026-05-09 01:58 26.30374 57.98408 40950 ft 498 kts 136°
2026-05-09 01:59 26.25839 58.04154 40939 ft 497 kts 135°
2026-05-09 01:59 26.21264 58.09944 40925 ft 497 kts 135°
2026-05-09 02:00 26.16711 58.15699 40902 ft 497 kts 135°
2026-05-09 02:00 26.12130 58.21480 40913 ft 498 kts 135°
2026-05-09 02:01 26.07543 58.27264 40903 ft 498 kts 135°
2026-05-09 02:01 26.02963 58.33030 40876 ft 498 kts 135°
2026-05-09 02:02 25.98385 58.38787 40851 ft 497 kts 135°
2026-05-09 02:02 25.93810 58.44533 40833 ft 498 kts 135°
2026-05-09 02:03 25.89231 58.50276 40814 ft 497 kts 135°
2026-05-09 02:03 25.84635 58.56032 40797 ft 498 kts 135°
2026-05-09 02:04 25.80025 58.61799 40793 ft 499 kts 135°
2026-05-09 02:04 25.75423 58.67550 40778 ft 499 kts 135°
2026-05-09 02:05 25.70828 58.73284 40782 ft 498 kts 135°
2026-05-09 02:05 25.66216 58.79032 40780 ft 499 kts 135°
2026-05-09 02:06 25.61626 58.84745 40783 ft 498 kts 135°
2026-05-09 02:07 25.54732 58.93314 40778 ft 499 kts 135°
2026-05-09 02:07 25.50110 58.99049 40777 ft 499 kts 135°
2026-05-09 02:08 25.45502 59.04759 40773 ft 499 kts 135°
2026-05-09 02:08 25.40864 59.10500 40774 ft 500 kts 135°
2026-05-09 02:09 25.36226 59.16234 40771 ft 500 kts 135°
2026-05-09 02:09 25.31610 59.21933 40765 ft 500 kts 135°
2026-05-09 02:10 25.26950 59.27680 40764 ft 500 kts 135°
2026-05-09 02:10 25.22314 59.33389 40762 ft 500 kts 135°
2026-05-09 02:11 25.17667 59.39098 40761 ft 501 kts 135°
2026-05-09 02:11 25.13066 59.44730 40760 ft 501 kts 135°
2026-05-09 02:12 25.08423 59.50408 40764 ft 502 kts 135°
2026-05-09 02:12 25.03717 59.56155 40763 ft 503 kts 135°
2026-05-09 02:13 24.99034 59.61869 40766 ft 502 kts 135°
2026-05-09 02:13 24.94350 59.67576 40762 ft 502 kts 135°
2026-05-09 02:14 24.89674 59.73266 40766 ft 502 kts 135°
2026-05-09 02:14 24.84977 59.78975 40778 ft 502 kts 135°
2026-05-09 02:15 24.80021 59.84256 40777 ft 497 kts 147°
2026-05-09 02:15 24.74055 59.88042 40780 ft 493 kts 155°
2026-05-09 02:16 24.68742 59.91043 40780 ft 494 kts 156°
2026-05-09 02:16 24.62632 59.94483 40785 ft 494 kts 156°
2026-05-09 02:17 24.56489 59.97936 40782 ft 494 kts 156°
2026-05-09 02:17 24.50029 60.00384 40785 ft 487 kts 173°
2026-05-09 02:18 24.43339 60.00554 40784 ft 479 kts 191°
2026-05-09 02:18 24.37034 59.98489 40779 ft 473 kts 208°
2026-05-09 02:19 24.31603 59.94421 40901 ft 469 kts 223°
2026-05-09 02:19 24.29286 59.91944 41167 ft 467 kts 228°
2026-05-09 02:19 24.27139 59.89238 41243 ft 468 kts 232°
2026-05-09 02:20 24.23427 59.83421 41082 ft 468 kts 239°
2026-05-09 02:20 24.21804 59.80320 40964 ft 467 kts 242°
2026-05-09 02:20 24.20333 59.77150 40841 ft 468 kts 245°
2026-05-09 02:20 24.18995 59.73927 40738 ft 467 kts 247°
2026-05-09 02:21 24.17755 59.70614 40620 ft 468 kts 248°
2026-05-09 02:21 24.16539 59.67248 39534 ft 478 kts 248°
2026-05-09 02:21 24.15259 59.63918 38484 ft 473 kts 242°
2026-05-09 02:21 24.13664 59.60766 37609 ft 474 kts 241°
2026-05-09 02:22 24.12054 59.57647 37568 ft 465 kts 241°
2026-05-09 02:22 24.10477 59.54637 38345 ft 455 kts 241°
2026-05-09 02:22 24.08923 59.51695 39319 ft 442 kts 240°
2026-05-09 02:22 23.62423 58.74886 39050 ft 453 kts 238°
2026-05-09 02:23 23.60520 58.72317 32720 ft 557 kts 213°
2026-05-09 02:23 23.57902 58.71957 21768 ft 589 kts 170°
2026-05-09 02:23 23.54622 58.71567 14176 ft 590 kts 210°
2026-05-09 02:23 23.52751 58.67868 12634 ft 575 kts 262°
2026-05-09 02:24 23.52331 58.63866 14307 ft 499 kts 264°
2026-05-09 02:24 23.52369 58.60357 15569 ft 441 kts 277°
2026-05-09 02:24 23.53248 58.57282 15950 ft 410 kts 293°
2026-05-09 02:24 23.54569 58.54645 16120 ft 386 kts 303°
2026-05-09 02:25 23.56134 58.52341 15553 ft 376 kts 307°
2026-05-09 02:25 23.57702 58.50021 14421 ft 384 kts 311°
2026-05-09 02:25 23.59636 58.48004 13210 ft 388 kts 327°
2026-05-09 02:25 23.61948 58.46560 12013 ft 388 kts 340°
2026-05-09 02:26 23.64528 58.45704 10794 ft 385 kts 352°
2026-05-09 02:26 23.67167 58.45456 9588 ft 381 kts
2026-05-09 02:26 23.69785 58.45794 8404 ft 377 kts 14°
2026-05-09 02:26 23.72233 58.46683 7236 ft 373 kts 24°
2026-05-09 02:27 23.74600 58.47770 6067 ft 368 kts 22°
2026-05-09 02:27 23.76938 58.48831 4884 ft 363 kts 22°
2026-05-09 02:27 23.79233 58.49889 4196 ft 343 kts 22°
2026-05-09 02:27 23.81338 58.50875 4202 ft 308 kts 22°
2026-05-09 02:28 23.83216 58.51761 4207 ft 279 kts 22°
2026-05-09 02:28 23.84933 58.52624 3929 ft 268 kts 31°
2026-05-09 02:28 23.86222 58.54043 3632 ft 262 kts 59°
2026-05-09 02:28 23.86688 58.55922 3505 ft 251 kts 90°
2026-05-09 02:29 23.86302 58.57697 3478 ft 235 kts 110°
2026-05-09 02:29 23.85677 58.59295 3465 ft 218 kts 111°
2026-05-09 02:29 23.85099 58.60735 3478 ft 230 kts 112°
2026-05-09 02:29 23.84431 58.62408 3481 ft 248 kts 111°
2026-05-09 02:30 23.83725 58.64172 3482 ft 252 kts 111°
2026-05-09 02:30 23.83020 58.65934 3783 ft 254 kts 111°
2026-05-09 02:30 23.82300 58.67728 3947 ft 254 kts 112°
2026-05-09 02:30 23.81599 58.69470 3974 ft 251 kts 111°
2026-05-09 02:31 23.80892 58.71225 3982 ft 252 kts 112°
2026-05-09 02:31 23.80189 58.72984 3977 ft 254 kts 112°
2026-05-09 02:31 23.79480 58.74768 3951 ft 251 kts 111°
2026-05-09 02:31 23.78781 58.76522 3965 ft 252 kts 111°
2026-05-09 02:32 23.78087 58.78262 3957 ft 250 kts 111°
2026-05-09 02:32 23.77380 58.80017 3970 ft 250 kts 116°
2026-05-09 02:32 23.76281 58.81467 3971 ft 252 kts 146°
2026-05-09 02:32 23.74637 58.82156 3966 ft 253 kts 177°
2026-05-09 02:33 23.72905 58.81875 3962 ft 250 kts 208°
2026-05-09 02:33 23.71577 58.80735 3954 ft 244 kts 238°
2026-05-09 02:33 23.70921 58.79036 3971 ft 241 kts 259°
2026-05-09 02:33 23.70561 58.77282 3956 ft 237 kts 256°
2026-05-09 02:34 23.70047 58.75603 3972 ft 228 kts 253°
2026-05-09 02:34 23.69507 58.73985 3974 ft 224 kts 253°
2026-05-09 02:34 23.68978 58.72406 3974 ft 222 kts 253°
2026-05-09 02:34 23.68443 58.70819 3977 ft 221 kts 253°
2026-05-09 02:35 23.67898 58.69249 3971 ft 220 kts 250°
2026-05-09 02:35 23.67273 58.67730 3980 ft 220 kts 250°
2026-05-09 02:35 23.66694 58.66188 3983 ft 214 kts 252°
2026-05-09 02:35 23.66201 58.64704 3969 ft 203 kts 255°
2026-05-09 02:36 23.65781 58.63282 3957 ft 195 kts 257°
2026-05-09 02:36 23.65406 58.61882 3967 ft 188 kts 258°
2026-05-09 02:36 23.65072 58.60507 3973 ft 187 kts 259°
2026-05-09 02:36 23.64755 58.59140 3978 ft 186 kts 255°
2026-05-09 02:37 23.64131 58.57957 3990 ft 191 kts 239°
2026-05-09 02:37 23.63436 58.56775 3979 ft 189 kts 249°
2026-05-09 02:37 23.63028 58.55429 3983 ft 187 kts 262°
2026-05-09 02:37 23.62826 58.54016 3989 ft 186 kts 266°
2026-05-09 02:38 23.62700 58.52611 3915 ft 189 kts 268°
2026-05-09 02:38 23.62592 58.51189 3694 ft 189 kts 269°
2026-05-09 02:38 23.62488 58.49760 3472 ft 189 kts 269°
2026-05-09 02:38 23.62381 58.48328 3240 ft 189 kts 269°
2026-05-09 02:39 23.62273 58.46903 3014 ft 188 kts 269°
2026-05-09 02:39 23.62164 58.45495 2778 ft 186 kts 269°
2026-05-09 02:39 23.62054 58.44095 2549 ft 184 kts 269°
2026-05-09 02:39 23.61944 58.42718 2290 ft 179 kts 269°
2026-05-09 02:40 23.61842 58.41440 2085 ft 161 kts 269°
2026-05-09 02:40 23.61749 58.40252 1905 ft 151 kts 269°
2026-05-09 02:40 23.61662 58.39159 1723 ft 138 kts 270°
2026-05-09 02:40 23.61582 58.38140 1557 ft 134 kts 270°
2026-05-09 02:41 23.61500 58.37122 1386 ft 132 kts 269°
2026-05-09 02:41 23.61420 58.36132 1216 ft 131 kts 269°
2026-05-09 02:41 23.61336 58.35136 1051 ft 130 kts 268°
2026-05-09 02:41 23.61256 58.34152 909 ft 130 kts 268°
2026-05-09 02:42 23.61182 58.33157 738 ft 133 kts 268°
2026-05-09 02:42 23.61109 58.32163 558 ft 132 kts 266°
2026-05-09 02:42 23.61024 58.31161 372 ft 131 kts 266°
2026-05-09 02:42 23.60945 58.30168 195 ft 130 kts 265°
2026-05-09 02:43 23.60866 58.29200 53 ft 125 kts 265°
2026-05-09 02:43 23.60838 58.28813 45 ft 0 kts 264°
2026-05-09 02:43 23.60837 58.28808 45 ft 9 kts 264°
2026-05-09 02:44 23.60807 58.28486 45 ft 83 kts 264°
2026-05-09 02:44 23.60741 58.27541 216 ft 145 kts 265°
2026-05-09 02:44 23.60659 58.26511 951 ft 147 kts 291°